Weather History for Ely, NV

Change the Weather History Date:

Thursday, December 27, 2012

  Actual Average Record
Temperature  
Mean Temperature 19 °F 25 °F  
Max Temperature 28 °F 39 °F 60 °F (1910)
Min Temperature 10 °F 10 °F -22 °F (1988)
Degree Days  
Heating Degree Days 46 40  
Month to date heating degree days 1000 1066  
Since 1 July heating degree days 2422 2934  
Cooling Degree Days 0 0  
Month to date cooling degree days 0 0  
Year to date cooling degree days 314 218  
Moisture  
Dew Point 17 °F    
Average Humidity 80    
Maximum Humidity 92    
Minimum Humidity 68    
Precipitation  
Precipitation 0.02 in 0.02 in 0.31 in (1983)
Month to date precipitation 1.64 0.50  
Year to date precipitation 12.16 9.67  
Snow  
Snow 1.00 in 0.30 in 3.60 in (1948)
Month to date snowfall 22.4 7.0  
Since 1 July snowfall 32.4 16.5  
Snow Depth 11.00 in    
Sea Level Pressure  
Sea Level Pressure 29.96 in    
Wind  
Wind Speed 5 mph (NW)    
Max Wind Speed 13 mph    
Max Gust Speed 14 mph    
Visibility 9 miles    
Events Snow    
T = Trace of Precipitation, MM = Missing Value Source: NWS Daily Summary

Daily Weather History Graph

Daily Weather History Graph

Search for Another Location

Airport:

Trip Planner

Search our weather history database for the weather conditions in past years. The results will help you decide how hot, cold, wet, or windy it might be!

Date:

Astronomy

Dec. 27, 2012 Rise Set
Actual Time 6:58 AM PST 4:23 PM PST
Civil Twilight 6:28 AM PST 4:53 PM PST
Nautical Twilight 5:54 AM PST 5:27 PM PST
Astronomical Twilight 5:21 AM PST 5:59 PM PST
Moon 4:10 PM PST (12/27) 6:12 AM PST (12/27)
Length of Visible Light 10h 25m
Length of Day
9h 25m
Full, 100% of the Moon is Illuminated
Dec 27
Full
Dec 28
Full
Jan 4
Last Quarter
Jan 11
New
Jan 18
First Quarter

Hourly Weather History & Observations

Time (PST) Temp. Windchill Dew Point Humidity Pressure Visibility Wind Dir Wind Speed Gust Speed Precip Events Conditions
12:53 AM 19.9 °F - 18.0 °F 92% 29.85 in 10.0 mi Calm Calm - 0.00 in   Overcast
1:53 AM 21.0 °F - 18.0 °F 88% 29.85 in 9.0 mi Calm Calm - 0.00 in   Overcast
2:53 AM 19.9 °F - 17.1 °F 89% 29.84 in 8.0 mi Calm Calm - 0.00 in   Overcast
3:53 AM 23.0 °F 14.7 °F 19.0 °F 85% 29.83 in 8.0 mi West 6.9 mph - 0.00 in Snow Light Snow
4:16 AM 23.0 °F 17.0 °F 19.4 °F 86% 29.79 in 5.0 mi WNW 4.6 mph - N/A Snow Light Snow
4:53 AM 21.9 °F 13.4 °F 19.0 °F 89% 29.86 in 2.5 mi West 6.9 mph - 0.01 in Snow Light Snow
5:00 AM 23.0 °F 17.0 °F 19.4 °F 86% 29.79 in 3.0 mi West 4.6 mph - 0.00 in Snow Light Snow
5:29 AM 21.2 °F 13.6 °F 19.4 °F 93% 29.80 in 5.0 mi West 5.8 mph - 0.00 in Snow Light Snow
5:53 AM 21.9 °F 13.4 °F 19.0 °F 89% 29.88 in 9.0 mi West 6.9 mph - 0.00 in Snow Light Snow
6:53 AM 21.0 °F 12.4 °F 18.0 °F 88% 29.93 in 6.0 mi NW 6.9 mph - 0.00 in Snow Light Snow
7:05 AM 21.2 °F 13.6 °F 19.4 °F 93% 29.83 in 4.0 mi WNW 5.8 mph - 0.00 in Snow Light Snow
7:35 AM 21.2 °F 13.6 °F 17.6 °F 86% 29.83 in 9.0 mi WNW 5.8 mph - 0.00 in   Overcast
7:53 AM 19.9 °F 14.9 °F 17.1 °F 89% 29.94 in 10.0 mi NNW 3.5 mph - 0.00 in   Overcast
8:53 AM 24.1 °F - 19.0 °F 81% 29.95 in 10.0 mi Calm Calm - 0.00 in   Overcast
9:44 AM 24.8 °F 19.1 °F 19.4 °F 80% 29.88 in 10.0 mi NNW 4.6 mph - 0.00 in   Overcast
9:53 AM 25.0 °F 18.1 °F 19.0 °F 78% 29.96 in 10.0 mi North 5.8 mph - 0.00 in   Overcast
10:53 AM 27.0 °F 20.5 °F 18.0 °F 69% 29.96 in 10.0 mi North 5.8 mph - N/A   Overcast
11:53 AM 27.0 °F 19.5 °F 18.0 °F 69% 29.94 in 10.0 mi North 6.9 mph - N/A   Overcast
12:53 PM 26.6 °F 18.2 °F 17.6 °F 69% 29.87 in 10.0 mi North 8.1 mph - N/A   Overcast
1:53 PM 27.0 °F 19.5 °F 18.0 °F 69% 29.96 in 10.0 mi North 6.9 mph - 0.00 in   Overcast
2:53 PM 26.1 °F 18.4 °F 18.0 °F 71% 29.99 in 10.0 mi North 6.9 mph - N/A   Overcast
3:53 PM 24.1 °F 16.0 °F 19.0 °F 81% 30.00 in 10.0 mi NNW 6.9 mph - 0.00 in   Overcast
4:53 PM 19.9 °F 14.9 °F 18.0 °F 92% 30.06 in 10.0 mi West 3.5 mph - N/A   Overcast
5:53 PM 21.9 °F 14.5 °F 19.0 °F 89% 30.07 in 10.0 mi NW 5.8 mph - N/A   Overcast
6:53 PM 21.9 °F 11.0 °F 19.9 °F 92% 30.08 in 10.0 mi North 10.4 mph - N/A   Overcast
7:53 PM 19.9 °F 10.1 °F 18.0 °F 92% 30.12 in 10.0 mi North 8.1 mph - N/A   Overcast
8:45 PM 19.4 °F 14.3 °F 15.8 °F 86% 30.01 in 10.0 mi NNW 3.5 mph - N/A   Overcast
8:53 PM 19.0 °F 13.9 °F 16.0 °F 88% 30.11 in 10.0 mi NW 3.5 mph - N/A   Overcast
9:53 PM 12.0 °F -0.4 °F 9.0 °F 88% 30.16 in 10.0 mi WNW 9.2 mph - N/A   Clear
10:28 PM 10.4 °F -1.5 °F 8.6 °F 92% 30.05 in 10.0 mi WNW 8.1 mph - N/A   Mostly Cloudy
10:53 PM 15.1 °F 7.7 °F 10.9 °F 84% 30.17 in 10.0 mi West 4.6 mph - N/A   Overcast
11:53 PM 17.1 °F 7.6 °F 12.0 °F 81% 30.17 in 10.0 mi WNW 6.9 mph - N/A   Overcast